SPACEBEE-41 (47451 NORAD) Tracking and Keplerian Element Data

This shows tracking and keplerian element data for the satellite.

Feedback or suggestion? Click here.




ElementValue
Catalog47451
NameSPACEBEE-41
Epoch Orbit1199
Epoch Day101.92128803
Epoch Year2021
RAAN164.2931
Inclination97.4927
Eccentricity0.0010612
Argument of Perigee340.4127
Mean Anonmoly19.6695
Mean Motion15.13092433
Decay Rate2.658E-05
L11 47451U 21006AQ 21101.92128803 .00002658 00000-0 15370-3 0 9998
L22 47451 97.4927 164.2931 0010612 340.4127 19.6695 15.13092433 11995

Live tracking and technical data element details for SPACEBEE-41 (NORAD 47451). SPACEBEE-41 can be tracked NOW for your location showing map with azimuth and elevation plus other details from your city location.

Track the satellite on the map from your city or location and see movement details for azimuth, elevation, latitude, longitude, range, height, and movement on the map or in text.







IsCatalogInMostPopularTable: catalog: 47451, numindb: 14
Update: records affected: 1



GetName: 47451 SPACEBEE-41

Hit Count: updated at: Tue, 13 Apr 2021 05:18:39 GMT